GW5867 Weather Reports


Display with metric or nautical units.
time (UTC)temp
F
wind
direction
speed
MPH
gust
MPH
rain 1hr
in
rain 24hr
in
rain mn
in
humidity
%
barometer
mb
20260505121531 58 194 5.0 13.0 0.00 0.00 0.00 66 1010.3
20260505121007 57 190 8.0 12.0 0.00 0.00 0.00 66 1010.2
20260505120512 57 180 7.0 11.0 0.00 0.00 0.00 67 1010.2
20260505120020 57 204 7.0 11.0 0.00 0.00 0.00 67 1010.3
20260505115502 57 176 6.0 10.0 0.00 0.00 0.00 67 1010.4
20260505115003 57 211 6.0 12.0 0.00 0.00 0.00 67 1010.5
20260505114503 57 188 6.0 11.0 0.00 0.00 0.00 67 1010.5
20260505114011 56 234 6.0 13.0 0.00 0.00 0.00 67 1010.3
20260505113504 56 185 7.0 13.0 0.00 0.00 0.00 67 1010.3
20260505113012 56 178 6.0 14.0 0.00 0.00 0.00 68 1010.4
20260505112505 56 189 8.0 14.0 0.00 0.00 0.00 68 1010.4
20260505112003 55 217 7.0 12.0 0.00 0.00 0.00 69 1010.4
20260505111513 55 167 6.0 14.0 0.00 0.00 0.00 69 1010.5
20260505111008 55 232 9.0 14.0 0.00 0.00 0.00 69 1010.4
20260505110510 55 203 8.0 12.0 0.00 0.00 0.00 69 1010.3
20260505102004 54 181 6.0 11.0 0.00 0.00 0.00 69 1009.8
20260505101516 53 198 7.0 11.0 0.00 0.00 0.00 69 1009.7
20260505101009 53 223 6.0 10.0 0.00 0.00 0.00 69 1009.7
20260505100503 53 217 5.0 8.0 0.00 0.00 0.00 69 1009.6
20260505100018 53 213 4.0 8.0 0.00 0.00 0.00 69 1009.5
20260505095508 53 182 4.0 10.0 0.00 0.00 0.00 69 1009.5
20260505095006 53 194 5.0 10.0 0.00 0.00 0.00 69 1009.5
20260505094522 53 209 6.0 10.0 0.00 0.00 0.00 69 1009.4
20260505094010 53 198 6.0 11.0 0.00 0.00 0.00 69 1009.3
20260505093508 53 201 7.0 11.0 0.00 0.00 0.00 69 1009.4
20260505093026 53 173 4.0 10.0 0.00 0.00 0.00 69 1009.5
20260505092503 53 190 3.0 8.0 0.00 0.00 0.00 69 1009.5
20260505092003 53 192 4.0 8.0 0.00 0.00 0.00 69 1009.5
20260505091513 53 195 4.0 8.0 0.00 0.00 0.00 69 1009.4
20260505091004 53 172 5.0 7.0 0.00 0.00 0.00 69 1009.5
20260505090503 54 180 4.0 7.0 0.00 0.00 0.00 68 1009.4
20260505090034 54 184 4.0 8.0 0.00 0.00 0.00 68 1009.4
20260505085504 54 187 4.0 8.0 0.00 0.00 0.00 68 1009.4
20260505085008 54 209 4.0 8.0 0.00 0.00 0.00 68 1009.6
20260505084522 54 148 5.0 9.0 0.00 0.00 0.00 67 1009.6
20260505084010 54 207 5.0 9.0 0.00 0.00 0.00 67 1009.6
20260505083513 54 204 4.0 8.0 0.00 0.00 0.00 67 1009.7
20260505083024 54 193 4.0 10.0 0.00 0.00 0.00 67 1009.7
20260505082512 54 186 6.0 10.0 0.00 0.00 0.00 67 1009.7
20260505082008 54 210 5.0 7.0 0.00 0.00 0.00 66 1009.6
20260505081507 54 187 5.0 9.0 0.00 0.00 0.00 66 1009.7
20260505081003 54 202 4.0 11.0 0.00 0.00 0.00 66 1009.7
20260505080502 54 194 6.0 11.0 0.00 0.00 0.00 65 1009.7
20260505080035 54 211 6.0 11.0 0.00 0.00 0.00 65 1009.8
20260505075503 54 190 4.0 9.0 0.00 0.00 0.00 65 1009.8
20260505075007 54 222 4.0 9.0 0.00 0.00 0.00 64 1009.8
20260505074525 54 196 4.0 9.0 0.00 0.00 0.00 64 1009.8
20260505074008 54 198 5.0 8.0 0.00 0.00 0.00 64 1009.7
20260505073505 55 203 5.0 11.0 0.00 0.00 0.00 63 1009.7
20260505073031 55 190 6.0 11.0 0.00 0.00 0.00 63 1009.7
20260505072506 55 217 6.0 11.0 0.00 0.00 0.00 63 1009.6
20260505072005 55 193 6.0 13.0 0.00 0.00 0.00 62 1009.6
20260505071533 55 195 5.0 13.0 0.00 0.00 0.00 61 1009.7
20260505071009 55 213 3.0 8.0 0.00 0.00 0.00 61 1009.7
20260505070509 55 200 4.0 10.0 0.00 0.00 0.00 61 1009.8
20260505070014 55 213 6.0 13.0 0.00 0.00 0.00 61 1009.7
20260505065503 55 212 5.0 13.0 0.00 0.00 0.00 61 1009.7
20260505065006 55 187 8.0 12.0 0.00 0.00 0.00 61 1009.6
20260505064520 55 207 5.0 12.0 0.00 0.00 0.00 61 1009.6
20260505064006 55 171 5.0 12.0 0.00 0.00 0.00 62 1009.7
20260505063506 54 159 6.0 15.0 0.00 0.00 0.00 62 1009.7
20260505063024 54 214 7.0 14.0 0.00 0.00 0.00 62 1009.7
20260505062509 54 193 6.0 10.0 0.00 0.00 0.00 63 1009.8
20260505062006 54 180 4.0 9.0 0.00 0.00 0.00 64 1009.8
20260505061528 54 180 5.0 9.0 0.00 0.00 0.00 63 1009.9
20260505061006 54 182 4.0 7.0 0.00 0.00 0.00 63 1009.9
20260505060511 54 172 3.0 7.0 0.00 0.00 0.00 62 1009.9
20260505060034 55 197 3.0 10.0 0.00 0.00 0.00 62 1010.0
20260505055511 55 157 5.0 10.0 0.00 0.00 0.00 61 1010.0
20260505055003 55 187 5.0 12.0 0.00 0.00 0.00 62 1010.1
20260505054514 55 155 6.0 12.0 0.00 0.00 0.00 62 1010.1
20260505054007 55 205 4.0 11.0 0.00 0.00 0.00 62 1010.2
20260505053507 54 207 7.0 14.0 0.00 0.00 0.00 63 1010.2
20260505053024 54 194 6.0 14.0 0.00 0.00 0.00 63 1010.1
20260505052506 54 192 4.0 11.0 0.00 0.00 0.00 63 1010.2
20260505052005 54 161 5.0 11.0 0.00 0.00 0.00 63 1010.2
20260505051524 54 179 4.0 7.0 0.00 0.00 0.00 63 1010.2
20260505051008 55 222 5.0 10.0 0.00 0.00 0.00 62 1010.3
20260505050509 54 208 6.0 14.0 0.00 0.00 0.00 63 1010.3
20260505041522 52 180 5.0 11.0 0.00 0.00 0.00 68 1010.5
20260505041006 52 186 5.0 11.0 0.00 0.00 0.00 69 1010.5
20260505040507 52 156 4.0 8.0 0.00 0.00 0.00 69 1010.5
20260505040025 51 188 4.0 12.0 0.00 0.00 0.00 70 1010.5
20260505035511 51 190 5.0 12.0 0.00 0.00 0.00 70 1010.5
20260505035012 51 205 4.0 9.0 0.00 0.00 0.00 70 1010.5
20260505034528 51 180 4.0 9.0 0.00 0.00 0.00 70 1010.4
20260505034007 51 202 3.0 8.0 0.00 0.00 0.00 70 1010.5
20260505033511 52 179 3.0 7.0 0.00 0.00 0.00 69 1010.5
20260505033035 52 181 2.0 6.0 0.00 0.00 0.00 69 1010.5
20260505032509 52 178 2.0 9.0 0.00 0.00 0.00 68 1010.5
20260505032005 52 163 3.0 8.0 0.00 0.00 0.00 68 1010.5
20260505031520 52 188 2.0 5.0 0.00 0.00 0.00 68 1010.6
20260505031010 53 173 4.0 6.0 0.00 0.00 0.00 67 1010.6
20260505030507 53 202 2.0 6.0 0.00 0.00 0.00 67 1010.6
20260505030026 53 178 4.0 9.0 0.00 0.00 0.00 66 1010.6
20260505025507 53 165 5.0 10.0 0.00 0.00 0.00 66 1010.6
20260505025008 53 176 5.0 10.0 0.00 0.00 0.00 65 1010.6
20260505024543 53 191 6.0 10.0 0.00 0.00 0.00 65 1010.5
20260505024010 53 213 5.0 9.0 0.00 0.00 0.00 65 1010.5
20260505023504 53 205 3.0 6.0 0.00 0.00 0.00 65 1010.5
20260505023012 54 210 3.0 7.0 0.00 0.00 0.00 64 1010.6
20260505022503 54 173 4.0 11.0 0.00 0.00 0.00 64 1010.6
20260505022011 54 209 6.0 11.0 0.00 0.00 0.00 64 1010.5
20260505021519 54 198 6.0 9.0 0.00 0.00 0.00 64 1010.6
20260505021004 54 191 5.0 9.0 0.00 0.00 0.00 63 1010.6
20260505020504 54 209 4.0 9.0 0.00 0.00 0.00 63 1010.6
20260505020022 54 187 5.0 9.0 0.00 0.00 0.00 63 1010.6
20260505015509 55 181 3.0 9.0 0.00 0.00 0.00 62 1010.6
20260505015008 55 186 4.0 9.0 0.00 0.00 0.00 62 1010.6
20260505014534 55 189 4.0 9.0 0.00 0.00 0.00 61 1010.4
20260505014007 55 184 4.0 9.0 0.00 0.00 0.00 61 1010.4
20260505013510 55 192 5.0 7.0 0.00 0.00 0.00 60 1010.4
20260505013027 55 211 4.0 7.0 0.00 0.00 0.00 60 1010.4
20260505012504 56 207 4.0 9.0 0.00 0.00 0.00 60 1010.3
20260505012004 56 236 5.0 9.0 0.00 0.00 0.00 59 1010.2
20260505011515 56 192 3.0 7.0 0.00 0.00 0.00 59 1010.2
20260505011005 56 207 2.0 7.0 0.00 0.00 0.00 59 1010.2
20260505010507 57 188 5.0 7.0 0.00 0.00 0.00 58 1010.1
20260505010022 57 227 4.0 8.0 0.00 0.00 0.00 57 1009.9
20260505005508 57 221 4.0 8.0 0.00 0.00 0.00 57 1009.8
20260505005009 57 175 4.0 9.0 0.00 0.00 0.00 57 1009.7
20260505004526 58 184 4.0 9.0 0.00 0.00 0.00 56 1009.6
20260505004009 58 195 6.0 12.0 0.00 0.00 0.00 55 1009.5
20260505003510 58 210 6.0 12.0 0.00 0.00 0.00 55 1009.4
20260505003027 58 182 6.0 12.0 0.00 0.00 0.00 55 1009.3
20260505002509 58 200 5.0 11.0 0.00 0.00 0.00 54 1009.2
20260505002007 59 186 5.0 14.0 0.00 0.00 0.00 54 1009.1
20260505001529 59 203 6.0 14.0 0.00 0.00 0.00 54 1009.0
20260505001004 59 167 4.0 13.0 0.00 0.00 0.00 54 1009.0
20260505000504 60 213 5.0 13.0 0.00 0.00 0.00 53 1008.9
20260505000016 60 169 6.0 14.0 0.00 0.00 0.00 52 1008.9
20260504235504 61 210 8.0 15.0 0.00 0.00 0.00 50 1008.8
20260504235005 61 239 7.0 15.0 0.00 0.00 0.00 49 1008.8
20260504234521 62 235 5.0 17.0 0.00 0.00 0.00 47 1008.8
20260504234013 62 176 7.0 16.0 0.00 0.00 0.00 43 1008.7
20260504233510 63 171 2.0 7.0 0.00 0.00 0.00 44 1008.6
20260504233028 63 217 3.0 7.0 0.00 0.00 0.00 41 1008.5
20260504232506 63 217 3.0 10.0 0.00 0.00 0.00 40 1008.5
20260504232010 63 205 5.0 10.0 0.00 0.00 0.00 39 1008.3
20260504231528 63 205 7.0 11.0 0.00 0.00 0.00 39 1008.2
20260504231007 64 195 6.0 11.0 0.00 0.00 0.00 39 1008.1
20260504230508 64 175 6.0 14.0 0.00 0.00 0.00 39 1008.0
20260504230016 64 205 8.0 15.0 0.00 0.00 0.00 37 1007.8
20260504225505 64 217 8.0 15.0 0.00 0.00 0.00 38 1007.8
20260504225006 64 263 6.0 11.0 0.00 0.00 0.00 39 1007.9
20260504224525 64 189 4.0 11.0 0.00 0.00 0.00 38 1007.8
20260504224009 65 204 6.0 11.0 0.00 0.00 0.00 37 1007.9
20260504223513 65 186 5.0 16.0 0.00 0.00 0.00 37 1007.8
20260504223024 65 186 8.0 16.0 0.00 0.00 0.00 37 1007.8
20260504222509 65 181 7.0 17.0 0.00 0.00 0.00 37 1007.8
20260504222010 65 240 7.0 17.0 0.00 0.00 0.00 36 1007.9
20260504221527 65 195 6.0 16.0 0.00 0.00 0.00 37 1007.8
20260504221008 65 177 8.0 16.0 0.00 0.00 0.00 36 1008.0
20260504220510 65 198 8.0 14.0 0.00 0.00 0.00 37 1007.9
20260504220027 65 194 7.0 14.0 0.00 0.00 0.00 36 1008.0
20260504215508 65 231 5.0 19.0 0.00 0.00 0.00 36 1008.0
20260504215009 65 208 9.0 19.0 0.00 0.00 0.00 36 1008.1
20260504214519 65 209 9.0 18.0 0.00 0.00 0.00 37 1008.1
20260504214008 65 200 7.0 18.0 0.00 0.00 0.00 36 1008.2
20260504213510 66 223 5.0 21.0 0.00 0.00 0.00 36 1008.2
20260504213024 66 224 9.0 20.0 0.00 0.00 0.00 35 1008.2
20260504212507 66 216 15.0 20.0 0.00 0.00 0.00 35 1008.2
20260504212015 66 209 7.0 16.0 0.00 0.00 0.00 36 1008.2
20260504211525 66 202 9.0 15.0 0.00 0.00 0.00 36 1008.2
20260504211008 66 222 10.0 20.0 0.00 0.00 0.00 35 1008.2
20260504210511 66 232 12.0 21.0 0.00 0.00 0.00 35 1008.4
20260504210016 67 203 8.0 21.0 0.00 0.00 0.00 35 1008.3
20260504205504 67 187 6.0 19.0 0.00 0.00 0.00 35 1008.2
20260504205003 67 225 9.0 19.0 0.00 0.00 0.00 35 1008.2
20260504204528 67 227 7.0 17.0 0.00 0.00 0.00 36 1008.3
20260504204008 67 193 4.0 17.0 0.00 0.00 0.00 36 1008.3
20260504203506 67 194 4.0 18.0 0.00 0.00 0.00 35 1008.3
20260504203026 67 195 8.0 18.0 0.00 0.00 0.00 34 1008.3
20260504202507 67 180 10.0 16.0 0.00 0.00 0.00 34 1008.5
20260504202006 67 205 4.0 23.0 0.00 0.00 0.00 34 1008.3
20260504201524 67 295 9.0 22.0 0.00 0.00 0.00 36 1008.4
20260504201012 67 234 8.0 22.0 0.00 0.00 0.00 36 1008.6
20260504200510 68 224 7.0 18.0 0.00 0.00 0.00 35 1008.7
20260504200028 67 237 4.0 19.0 0.00 0.00 0.00 37 1008.7
20260504195507 67 215 5.0 19.0 0.00 0.00 0.00 35 1008.6
20260504195004 67 110 6.0 20.0 0.00 0.00 0.00 36 1009.0
20260504194515 67 211 8.0 20.0 0.00 0.00 0.00 38 1008.9
20260504194004 67 306 7.0 14.0 0.00 0.00 0.00 37 1008.9
20260504193504 67 211 4.0 19.0 0.00 0.00 0.00 37 1008.9
20260504193020 67 230 12.0 18.0 0.00 0.00 0.00 34 1008.9
20260504192505 67 270 10.0 17.0 0.00 0.00 0.00 34 1008.8
20260504192007 67 216 4.0 21.0 0.00 0.00 0.00 36 1008.7
20260504191523 67 290 5.0 21.0 0.00 0.00 0.00 36 1008.9
20260504191008 67 192 5.0 18.0 0.00 0.00 0.00 37 1008.9
20260504190508 66 169 9.0 19.0 0.00 0.00 0.00 36 1008.9
20260504190025 66 148 8.0 19.0 0.00 0.00 0.00 37 1008.9
20260504185510 66 212 10.0 18.0 0.00 0.00 0.00 36 1009.0
20260504185008 66 194 6.0 16.0 0.00 0.00 0.00 37 1009.1
20260504184528 66 184 4.0 17.0 0.00 0.00 0.00 38 1009.0
20260504184004 66 160 7.0 18.0 0.00 0.00 0.00 37 1009.1
20260504183506 66 224 5.0 23.0 0.00 0.00 0.00 36 1009.2
20260504183017 66 234 8.0 20.0 0.00 0.00 0.00 37 1009.0
20260504182508 66 337 5.0 18.0 0.00 0.00 0.00 36 1009.0
20260504182008 66 218 6.0 20.0 0.00 0.00 0.00 40 1009.2
20260504181521 66 246 8.0 20.0 0.00 0.00 0.00 39 1009.1
20260504181003 66 227 7.0 19.0 0.00 0.00 0.00 38 1009.1
20260504180502 66 345 11.0 19.0 0.00 0.00 0.00 37 1009.3
20260504180008 66 198 7.0 13.0 0.00 0.00 0.00 36 1009.2
20260504175503 65 196 5.0 20.0 0.00 0.00 0.00 37 1009.3
20260504175004 65 325 7.0 20.0 0.00 0.00 0.00 37 1009.3
20260504174510 65 221 9.0 19.0 0.00 0.00 0.00 38 1009.3
20260504174005 65 187 8.0 18.0 0.00 0.00 0.00 39 1009.3
20260504173505 65 180 7.0 17.0 0.00 0.00 0.00 37 1009.4
20260504173013 65 227 6.0 22.0 0.00 0.00 0.00 38 1009.4
20260504172505 64 196 4.0 22.0 0.00 0.00 0.00 37 1009.5
20260504172008 64 244 7.0 15.0 0.00 0.00 0.00 39 1009.4
20260504171521 64 183 6.0 15.0 0.00 0.00 0.00 38 1009.6
20260504171003 63 31 9.0 16.0 0.00 0.00 0.00 40 1009.7
20260504170505 63 191 7.0 24.0 0.00 0.00 0.00 38 1009.7
20260504151005 59 294 8.0 25.0 0.00 0.00 0.00 40 1010.6
20260504150509 59 234 10.0 26.0 0.00 0.00 0.00 39 1010.5
20260504141006 57 244 5.0 20.0 0.00 0.00 0.00 42 1011.0
20260504140507 57 185 9.0 20.0 0.00 0.00 0.00 41 1011.0
20260504130508 53 213 4.0 17.0 0.00 0.00 0.00 49 1011.4